User: anonymous   Login
Location: Unspecified
(0.0000°N, 0.0000°E)
Time: 19:15:14
(UTC+00:00)
Language:

WGS 8 (USA 272) - Orbit

View from above orbital plane
View from above orbital plane
View from above satellite
View from above satellite

Ground track
Ground track

The orbit data is extracted from the following two-line orbital elements,

1 41879U 16075A   19083.48403767 -.00000225  00000-0  00000+0 0  9997
2 41879   0.0090 100.9852 0000326 285.9016 118.7873  1.00272138  8431
Epoch (UTC): 24 March 2019 11:37:00
Eccentricity: 0.0000326
inclination: 0.0090°
perigee height: 35785 km
apogee height: 35787 km
right ascension of ascending node: 100.9852°
argument of perigee: 285.9016°
revolutions per day: 1.00272138
mean anomaly at epoch: 118.7873°
orbit number at epoch: 843

The dashed part of the orbit path shows where the satellite is in the earth's shadow,  

DLR